Location: Unspecified
(0.0000°N, 0.0000°E)
Time: 18:26:03
(UTC+00:00)

AO-7 - Pass Details

Date: 17 December 2017
Orbit: 1439 x 1459 km, 101.7° (Epoch: 20 April)

Event Time Altitude Azimuth Distance (km) Brightness Sun altitude
Exits shadow 02:10:55 24° 84° (E) 2,664 ? -49.8°
Maximum altitude 02:13:06 26° 107° (ESE) 2,527 ? -49.3°
Drops below altitude 10° 02:19:41 10° 160° (SSE) 3,576 ? -48.0°
Sets 02:23:01 0° 171° (S) 4,554 ? -47.4°
